GW1213 Weather Reports


time (UTC)temp
C
wind
direction
speed
KPH
gust
KPH
rain 1hr
cm
rain 24hr
cm
rain mn
cm
humidity
%
barometer
mb
20260508213048 22 142 4.8 19.3 0.00 0.00 0.00 31 1011.0
20260508212536 22 136 4.8 19.3 0.00 0.00 0.00 30 1011.2
20260508212037 22 225 6.4 14.5 0.00 0.00 0.00 30 1011.2
20260508211542 22 167 1.6 12.9 0.00 0.00 0.00 31 1011.1
20260508211036 22 258 1.6 14.5 0.00 0.00 0.00 31 1011.2
20260508210534 22 0 6.4 14.5 0.00 0.00 0.00 29 1011.1
20260508210054 22 0 1.6 12.9 0.00 0.00 0.00 30 1011.1
20260508205537 22 221 3.2 12.9 0.00 0.00 0.00 31 1011.2
20260508205038 22 238 3.2 14.5 0.00 0.00 0.00 30 1011.2
20260508204549 22 214 4.8 14.5 0.00 0.00 0.00 30 1011.2
20260508204034 22 213 6.4 14.5 0.00 0.00 0.00 30 1011.3
20260508203537 22 245 3.2 14.5 0.00 0.00 0.00 30 1011.3
20260508203046 22 206 4.8 14.5 0.00 0.00 0.00 29 1011.4
20260508202537 22 257 3.2 14.5 0.00 0.00 0.00 31 1011.4
20260508202034 22 115 4.8 12.9 0.00 0.00 0.00 33 1011.4
20260508201546 22 120 3.2 9.7 0.00 0.00 0.00 34 1011.4
20260508201038 22 234 1.6 14.5 0.00 0.00 0.00 31 1011.6
20260508200533 22 116 4.8 14.5 0.00 0.00 0.00 31 1011.7
20260508200046 22 254 3.2 11.3 0.00 0.00 0.00 30 1011.8
20260508195533 23 277 3.2 11.3 0.00 0.00 0.00 30 1011.8
20260508195034 23 275 3.2 11.3 0.00 0.00 0.00 33 1011.9
20260508194554 23 117 3.2 11.3 0.00 0.00 0.00 33 1011.9
20260508194038 22 0 1.6 12.9 0.00 0.00 0.00 33 1011.9
20260508193533 22 204 1.6 16.1 0.00 0.00 0.00 31 1012.0
20260508193101 22 278 4.8 16.1 0.00 0.00 0.00 32 1012.0
20260508192535 22 149 6.4 14.5 0.00 0.00 0.00 31 1012.2
20260508192040 22 0 4.8 12.9 0.00 0.00 0.00 32 1012.2
20260508191557 22 264 4.8 14.5 0.00 0.00 0.00 30 1012.3
20260508191035 22 206 3.2 16.1 0.00 0.00 0.00 31 1012.4
20260508190535 22 242 4.8 16.1 0.00 0.00 0.00 31 1012.4
20260508190104 22 203 6.4 12.9 0.00 0.00 0.00 32 1012.5
20260508185539 22 186 3.2 11.3 0.00 0.03 0.00 32 1012.6
20260508185034 22 202 3.2 14.5 0.00 0.03 0.00 33 1012.7
20260508184547 22 219 3.2 14.5 0.00 0.03 0.00 32 1012.8
20260508184034 22 205 1.6 11.3 0.00 0.03 0.00 33 1012.9
20260508183534 22 155 0.0 12.9 0.00 0.03 0.00 34 1012.9
20260508183101 22 0 4.8 12.9 0.00 0.03 0.00 33 1013.0
20260508182535 22 242 3.2 11.3 0.00 0.03 0.00 34 1012.9
20260508182036 22 0 0.0 6.4 0.00 0.03 0.00 33 1012.9
20260508181552 21 290 1.6 17.7 0.00 0.03 0.00 35 1013.0
20260508181040 21 263 4.8 17.7 0.00 0.03 0.00 33 1013.2
20260508180535 21 0 1.6 11.3 0.00 0.03 0.00 33 1013.2
20260508180100 21 187 3.2 12.9 0.00 0.03 0.00 35 1013.3
20260508175535 21 232 3.2 12.9 0.00 0.03 0.00 36 1013.3
20260508175036 20 176 4.8 12.9 0.00 0.03 0.00 34 1013.4
20260508174601 21 211 3.2 22.5 0.00 0.03 0.00 34 1013.3
20260508174034 21 248 4.8 22.5 0.00 0.03 0.00 34 1013.5
20260508173535 21 236 4.8 22.5 0.00 0.03 0.00 33 1013.5
20260508173050 21 178 1.6 11.3 0.00 0.03 0.00 36 1013.5
20260508172537 21 0 0.0 16.1 0.00 0.03 0.00 37 1013.5
20260508172039 21 0 3.2 16.1 0.00 0.03 0.00 35 1013.6
20260508171554 21 253 3.2 11.3 0.00 0.03 0.00 34 1013.8
20260508171034 21 0 3.2 9.7 0.00 0.03 0.00 34 1013.8
20260508170536 21 238 0.0 12.9 0.00 0.03 0.00 37 1013.9
20260508170049 20 0 0.0 16.1 0.00 0.03 0.00 38 1013.9
20260508165535 20 190 3.2 16.1 0.00 0.03 0.00 37 1014.1
20260508165035 20 338 0.0 12.9 0.00 0.03 0.00 37 1014.1
20260508164552 20 0 1.6 16.1 0.00 0.03 0.00 37 1014.1
20260508164035 20 169 4.8 16.1 0.00 0.03 0.00 35 1014.2
20260508163537 20 136 3.2 12.9 0.00 0.03 0.00 37 1014.5
20260508163048 20 234 1.6 9.7 0.00 0.03 0.00 39 1014.5
20260508162535 19 91 3.2 9.7 0.00 0.03 0.00 38 1014.5
20260508162036 19 171 3.2 12.9 0.00 0.03 0.00 39 1014.7
20260508161547 20 269 3.2 12.9 0.00 0.03 0.00 37 1014.9
20260508161035 20 273 1.6 14.5 0.00 0.03 0.00 37 1014.9
20260508160536 20 126 3.2 14.5 0.00 0.03 0.00 36 1014.9
20260508160046 19 70 0.0 6.4 0.00 0.03 0.00 39 1015.0
20260508155534 19 32 1.6 11.3 0.00 0.03 0.00 35 1015.0
20260508155035 19 216 1.6 12.9 0.00 0.03 0.00 37 1015.2
20260508154554 19 202 4.8 12.9 0.00 0.03 0.00 40 1015.1
20260508154038 18 157 1.6 8.0 0.00 0.03 0.00 39 1015.0
20260508153538 18 158 1.6 8.0 0.00 0.03 0.00 40 1015.2
20260508153056 18 208 3.2 14.5 0.00 0.03 0.00 40 1015.2
20260508152538 18 278 3.2 14.5 0.00 0.03 0.00 39 1015.2
20260508152038 18 171 1.6 11.3 0.00 0.03 0.00 34 1015.3
20260508151549 19 260 3.2 11.3 0.00 0.03 0.00 37 1015.3
20260508151038 18 181 0.0 4.8 0.00 0.03 0.00 35 1015.4
20260508150537 18 257 0.0 3.2 0.00 0.03 0.00 37 1015.4
20260508150050 18 0 0.0 3.2 0.00 0.03 0.00 38 1015.4
20260508145539 18 0 0.0 3.2 0.00 0.03 0.00 39 1015.5
20260508145038 18 0 0.0 8.0 0.00 0.03 0.00 41 1015.6
20260508144553 17 0 0.0 12.9 0.00 0.03 0.00 41 1015.6
20260508144038 17 0 4.8 12.9 0.00 0.03 0.00 36 1015.7
20260508143539 17 0 1.6 6.4 0.00 0.03 0.00 38 1015.8
20260508143059 17 262 0.0 4.8 0.00 0.03 0.00 39 1015.7
20260508142538 17 0 0.0 3.2 0.00 0.03 0.00 42 1015.7
20260508142038 17 0 0.0 3.2 0.00 0.03 0.00 40 1015.7
20260508141604 17 26 0.0 3.2 0.00 0.03 0.00 43 1015.7
20260508141037 17 0 0.0 3.2 0.00 0.03 0.00 43 1015.8
20260508140538 16 0 0.0 4.8 0.00 0.03 0.00 50 1015.8
20260508140056 16 61 1.6 4.8 0.00 0.03 0.00 50 1015.8
20260508135538 16 62 1.6 8.0 0.00 0.03 0.00 51 1015.9
20260508135038 15 70 1.6 8.0 0.00 0.03 0.00 54 1015.9
20260508134551 15 81 3.2 8.0 0.00 0.03 0.00 53 1015.9
20260508134037 15 76 1.6 6.4 0.00 0.03 0.00 56 1016.0
20260508133539 15 64 1.6 4.8 0.00 0.03 0.00 60 1016.0
20260508133052 15 0 0.0 0.0 0.00 0.03 0.00 61 1016.1
20260508132538 14 0 0.0 0.0 0.00 0.03 0.00 60 1016.2
20260508132038 14 0 0.0 0.0 0.00 0.03 0.00 60 1016.1
20260508131603 13 0 0.0 0.0 0.00 0.03 0.00 63 1016.2
20260508131041 13 0 0.0 0.0 0.00 0.03 0.00 65 1016.1
20260508130542 13 0 0.0 0.0 0.00 0.03 0.00 72 1016.1
20260508130054 13 0 0.0 0.0 0.00 0.03 0.00 71 1016.1
20260508125538 12 0 0.0 0.0 0.00 0.03 0.00 73 1016.1
20260508125038 12 0 0.0 0.0 0.00 0.03 0.00 74 1016.2
20260508124552 12 0 0.0 0.0 0.00 0.03 0.00 79 1016.2
20260508124038 12 0 0.0 0.0 0.00 0.03 0.00 83 1016.2
20260508123538 11 0 0.0 0.0 0.00 0.03 0.00 86 1016.1
20260508123105 11 0 0.0 0.0 0.00 0.03 0.00 86 1016.1
20260508122538 10 0 0.0 4.8 0.00 0.03 0.00 87 1016.1
20260508122040 10 0 0.0 4.8 0.00 0.03 0.00 86 1016.0
20260508121600 10 73 3.2 4.8 0.00 0.03 0.00 87 1015.7
20260508121038 10 69 0.0 0.0 0.00 0.03 0.00 87 1015.8
20260508120538 10 0 0.0 0.0 0.00 0.03 0.00 87 1015.8
20260508120106 10 0 0.0 0.0 0.00 0.03 0.00 88 1015.9
20260508115538 10 0 0.0 0.0 0.00 0.03 0.00 89 1015.8
20260508115036 10 0 0.0 0.0 0.00 0.03 0.00 89 1015.7
20260508114559 9 0 0.0 0.0 0.00 0.03 0.00 92 1015.7
20260508114038 8 0 0.0 0.0 0.00 0.03 0.00 95 1015.7
20260508113538 8 0 0.0 0.0 0.00 0.03 0.00 95 1015.7
20260508113103 8 0 0.0 0.0 0.00 0.03 0.00 95 1015.7
20260508112537 7 0 0.0 0.0 0.00 0.03 0.00 96 1015.6
20260508112037 7 0 0.0 0.0 0.00 0.03 0.00 97 1015.6
20260508111550 7 0 0.0 0.0 0.00 0.03 0.00 97 1015.4
20260508111039 6 0 0.0 0.0 0.00 0.03 0.00 97 1015.4
20260508110538 6 0 0.0 0.0 0.00 0.03 0.00 97 1015.2
20260508110051 6 0 0.0 0.0 0.00 0.03 0.00 97 1015.1
20260508105538 6 0 0.0 0.0 0.00 0.03 0.00 97 1015.0
20260508105039 5 0 0.0 0.0 0.00 0.03 0.00 96 1015.0
20260508104548 5 0 0.0 0.0 0.00 0.03 0.00 95 1014.9
20260508104038 5 0 0.0 0.0 0.00 0.03 0.00 94 1014.7
20260508103538 5 0 0.0 0.0 0.00 0.03 0.00 94 1014.6
20260508103059 5 0 0.0 0.0 0.00 0.03 0.00 94 1014.5
20260508102538 5 0 0.0 0.0 0.00 0.03 0.00 94 1014.3
20260508102038 5 0 0.0 0.0 0.00 0.03 0.00 94 1014.2
20260508101554 5 0 0.0 0.0 0.00 0.03 0.00 94 1014.2
20260508101038 5 0 0.0 0.0 0.00 0.03 0.00 94 1014.1
20260508100537 5 0 0.0 0.0 0.00 0.03 0.00 94 1014.0
20260508100048 5 0 0.0 0.0 0.00 0.03 0.00 94 1013.9
20260508095541 5 0 0.0 0.0 0.00 0.03 0.00 94 1013.8
20260508095038 6 0 0.0 0.0 0.00 0.03 0.00 94 1013.8
20260508094547 6 0 0.0 0.0 0.00 0.03 0.00 94 1013.8
20260508094038 6 0 0.0 0.0 0.00 0.03 0.00 94 1013.8
20260508093538 6 0 0.0 0.0 0.00 0.03 0.00 94 1013.7
20260508093046 6 0 0.0 0.0 0.00 0.03 0.00 94 1013.8
20260508092535 6 0 0.0 0.0 0.00 0.03 0.00 95 1013.8
20260508092034 6 0 0.0 0.0 0.00 0.03 0.00 94 1013.8
20260508091547 6 0 0.0 0.0 0.00 0.03 0.00 94 1013.8
20260508091034 6 0 0.0 0.0 0.00 0.03 0.00 94 1013.8
20260508090534 6 0 0.0 0.0 0.00 0.03 0.00 94 1013.8
20260508090059 6 0 0.0 0.0 0.00 0.03 0.00 94 1013.7
20260508085533 6 0 0.0 0.0 0.00 0.03 0.00 94 1013.6
20260508085034 6 0 0.0 0.0 0.00 0.03 0.00 94 1013.6
20260508084549 6 0 0.0 0.0 0.00 0.03 0.00 94 1013.5
20260508084034 7 0 0.0 0.0 0.00 0.03 0.00 94 1013.6
20260508083535 7 0 0.0 0.0 0.00 0.03 0.00 94 1013.5
20260508083049 7 0 0.0 0.0 0.00 0.03 0.00 94 1013.5
20260508082536 7 0 0.0 0.0 0.00 0.03 0.00 94 1013.4
20260508082035 7 0 0.0 0.0 0.00 0.03 0.00 94 1013.4
20260508081548 7 0 0.0 0.0 0.00 0.03 0.00 94 1013.4
20260508081034 7 0 0.0 0.0 0.00 0.03 0.00 94 1013.3
20260508080535 7 0 0.0 0.0 0.00 0.03 0.00 94 1013.3
20260508080050 7 0 0.0 0.0 0.00 0.03 0.00 94 1013.3
20260508075534 7 0 0.0 0.0 0.00 0.03 0.00 94 1013.3
20260508075033 7 0 0.0 0.0 0.00 0.03 0.00 94 1013.2
20260508074551 7 0 0.0 0.0 0.00 0.03 0.00 94 1013.2
20260508074036 7 0 0.0 0.0 0.00 0.03 0.00 94 1013.2
20260508073534 7 0 0.0 0.0 0.00 0.03 0.00 94 1013.2
20260508073047 7 0 0.0 0.0 0.00 0.03 0.00 94 1013.2
20260508072535 7 0 0.0 0.0 0.00 0.03 0.00 94 1013.1
20260508072034 7 0 0.0 0.0 0.00 0.03 0.00 94 1013.0
20260508071551 7 0 0.0 0.0 0.00 0.03 0.00 94 1013.0
20260508071034 7 0 0.0 0.0 0.00 0.03 0.00 94 1012.9
20260508070534 7 0 0.0 0.0 0.00 0.03 0.00 94 1012.9
20260508070054 8 0 0.0 0.0 0.00 0.03 0.00 94 1012.8
20260508065533 8 0 0.0 0.0 0.00 0.05 0.00 94 1012.8
20260508065035 8 0 0.0 0.0 0.00 0.05 0.00 94 1012.7
20260508064551 8 0 0.0 0.0 0.00 0.05 0.00 94 1012.5
20260508064034 8 0 0.0 0.0 0.00 0.05 0.00 94 1012.4
20260508063534 8 0 0.0 0.0 0.00 0.05 0.00 94 1012.4
20260508063102 8 0 0.0 0.0 0.00 0.05 0.00 94 1012.3
20260508062536 8 0 0.0 0.0 0.00 0.05 0.00 94 1012.2
20260508062034 7 0 0.0 0.0 0.00 0.05 0.00 94 1012.2
20260508061548 7 0 0.0 0.0 0.00 0.05 0.00 94 1012.1
20260508061037 7 0 0.0 0.0 0.00 0.05 0.00 94 1012.0
20260508060533 7 0 0.0 0.0 0.00 0.05 0.00 93 1012.0
20260508060049 7 0 0.0 0.0 0.00 0.05 0.00 93 1012.0
20260508055534 7 0 0.0 0.0 0.00 0.08 0.00 93 1011.9
20260508055034 7 0 0.0 0.0 0.00 0.08 0.00 93 1012.0
20260508054542 7 0 0.0 0.0 0.00 0.08 0.00 93 1012.0
20260508054033 8 0 0.0 0.0 0.00 0.08 0.00 92 1011.9
20260508053534 8 0 0.0 0.0 0.00 0.08 0.00 92 1011.9
20260508053055 8 0 0.0 0.0 0.00 0.08 0.00 92 1011.9
20260508052534 8 0 0.0 0.0 0.00 0.08 0.00 92 1011.9
20260508052034 8 0 0.0 0.0 0.00 0.08 0.00 92 1011.9
20260508051552 8 0 0.0 0.0 0.00 0.08 0.00 92 1011.8
20260508051040 8 0 0.0 0.0 0.00 0.08 0.00 92 1011.9
20260508050537 8 0 0.0 0.0 0.00 0.08 0.00 92 1011.9
20260508050047 8 0 0.0 0.0 0.00 0.08 0.00 92 1011.7
20260508045534 8 0 0.0 0.0 0.00 0.10 0.00 92 1011.8
20260508045034 8 0 0.0 0.0 0.00 0.10 0.00 92 1011.7
20260508044546 8 0 0.0 0.0 0.00 0.10 0.00 92 1011.7
20260508044034 8 0 0.0 0.0 0.00 0.10 0.00 91 1011.7
20260508043534 8 0 0.0 0.0 0.00 0.10 0.00 92 1011.6
20260508043057 8 0 0.0 0.0 0.00 0.10 0.00 91 1011.5
20260508042535 9 0 0.0 0.0 0.00 0.10 0.00 91 1011.5
20260508042036 9 0 0.0 0.0 0.00 0.10 0.00 91 1011.6
20260508041558 9 0 0.0 0.0 0.00 0.10 0.00 91 1011.5
20260508041037 9 0 0.0 0.0 0.00 0.10 0.00 91 1011.6
20260508040536 9 0 0.0 0.0 0.00 0.10 0.00 90 1011.5
20260508040051 9 0 0.0 0.0 0.00 0.10 0.00 90 1011.4
20260508035535 9 0 0.0 0.0 0.00 0.10 0.10 90 1011.3
20260508035034 10 0 0.0 0.0 0.00 0.10 0.10 89 1011.4
20260508034547 10 0 0.0 0.0 0.00 0.10 0.10 89 1011.3
20260508034037 10 0 0.0 0.0 0.00 0.10 0.10 89 1011.3
20260508033536 10 0 0.0 0.0 0.00 0.10 0.10 88 1011.3
20260508033048 10 0 0.0 0.0 0.00 0.10 0.10 88 1011.3
20260508032537 10 0 0.0 0.0 0.00 0.10 0.10 87 1011.3
20260508032039 10 0 0.0 0.0 0.00 0.10 0.10 87 1011.3
20260508031546 10 0 0.0 0.0 0.00 0.10 0.10 87 1011.3
20260508031035 10 0 0.0 0.0 0.00 0.10 0.10 86 1011.3
20260508030538 10 0 0.0 0.0 0.00 0.10 0.10 86 1011.2
20260508030052 11 0 0.0 0.0 0.00 0.10 0.10 85 1011.2
20260508025538 11 0 0.0 0.0 0.00 0.10 0.10 84 1011.2
20260508025039 11 0 0.0 0.0 0.00 0.10 0.10 85 1011.2
20260508024550 11 0 0.0 0.0 0.00 0.10 0.10 83 1011.1
20260508024038 11 0 0.0 0.0 0.00 0.10 0.10 83 1011.1
20260508023538 11 0 0.0 0.0 0.00 0.10 0.10 83 1011.1
20260508023048 11 0 0.0 0.0 0.00 0.10 0.10 82 1011.1
20260508022539 11 0 0.0 0.0 0.00 0.10 0.10 82 1011.2
20260508022038 11 0 0.0 0.0 0.00 0.10 0.10 82 1011.1
20260508021554 11 0 0.0 0.0 0.00 0.10 0.10 81 1011.1
20260508021037 11 0 0.0 0.0 0.00 0.10 0.10 81 1011.1
20260508020537 11 0 0.0 0.0 0.00 0.10 0.10 81 1011.1
20260508020049 11 0 0.0 0.0 0.00 0.10 0.10 80 1011.0
20260508015537 11 0 0.0 1.6 0.00 0.10 0.10 80 1011.0
20260508015038 11 0 0.0 4.8 0.00 0.10 0.10 79 1010.9
20260508014551 11 0 0.0 4.8 0.00 0.10 0.10 79 1010.8
20260508014038 11 0 0.0 0.0 0.00 0.10 0.10 79 1010.8
20260508013538 11 0 0.0 0.0 0.00 0.10 0.10 79 1010.8
20260508013057 11 0 0.0 0.0 0.00 0.10 0.10 79 1010.8
20260508012538 11 0 0.0 0.0 0.00 0.10 0.10 78 1010.7
20260508012039 11 0 0.0 0.0 0.00 0.10 0.10 78 1010.7
20260508011554 11 0 0.0 0.0 0.00 0.10 0.10 78 1010.6
20260508011035 11 0 0.0 0.0 0.00 0.10 0.10 78 1010.7
20260508010538 12 0 0.0 0.0 0.00 0.10 0.10 77 1010.7
20260508010048 12 0 0.0 0.0 0.00 0.10 0.10 78 1010.6
20260508005537 12 0 0.0 0.0 0.00 0.10 0.10 77 1010.5
20260508005041 12 0 0.0 0.0 0.00 0.10 0.10 77 1010.4
20260508004547 12 0 0.0 0.0 0.00 0.10 0.10 76 1010.4
20260508004040 12 0 0.0 0.0 0.00 0.10 0.10 76 1010.4
20260508003537 12 0 0.0 0.0 0.00 0.10 0.10 76 1010.4
20260508003051 12 0 0.0 0.0 0.00 0.10 0.10 75 1010.3
20260508002539 12 0 0.0 1.6 0.00 0.10 0.10 75 1010.3
20260508002037 12 0 0.0 4.8 0.00 0.10 0.10 75 1010.3
20260508001609 12 0 0.0 4.8 0.00 0.10 0.10 75 1010.3
20260508001041 13 0 0.0 4.8 0.00 0.10 0.10 74 1010.2
20260508000541 13 0 0.0 4.8 0.00 0.10 0.10 74 1010.2
20260508000053 13 0 0.0 6.4 0.00 0.10 0.10 74 1010.1
20260507235539 13 0 0.0 6.4 0.00 0.10 0.10 73 1010.1
20260507235038 13 225 1.6 8.0 0.00 0.10 0.10 72 1010.0
20260507234551 13 209 1.6 8.0 0.00 0.10 0.10 72 1009.9
20260507234058 13 161 1.6 8.0 0.00 0.10 0.10 72 1009.8
20260507233538 13 0 1.6 8.0 0.00 0.10 0.10 73 1009.7
20260507233047 13 221 1.6 6.4 0.00 0.10 0.10 72 1009.7
20260507232538 13 139 0.0 6.4 0.00 0.10 0.10 71 1009.6
20260507232038 13 148 1.6 6.4 0.00 0.10 0.10 72 1009.5
20260507231548 13 136 0.0 12.9 0.00 0.10 0.10 71 1009.3
20260507231037 13 0 1.6 12.9 0.00 0.10 0.10 72 1009.3
20260507230538 13 194 1.6 12.9 0.00 0.10 0.10 73 1009.3
20260507230049 13 146 1.6 8.0 0.00 0.10 0.10 73 1009.3
20260507225540 13 0 1.6 14.5 0.00 0.10 0.10 73 1009.2
20260507225038 13 192 3.2 14.5 0.00 0.10 0.10 74 1009.3
20260507224557 13 103 0.0 16.1 0.00 0.10 0.10 73 1009.3
20260507224040 13 256 3.2 16.1 0.00 0.10 0.10 73 1009.3
20260507223539 14 180 3.2 14.5 0.00 0.10 0.10 73 1009.2
20260507223053 14 139 4.8 14.5 0.00 0.10 0.10 74 1009.2
20260507222537 14 69 3.2 11.3 0.00 0.10 0.10 74 1009.2
20260507222042 14 58 1.6 12.9 0.00 0.10 0.10 72 1009.3
20260507221553 14 143 1.6 12.9 0.00 0.10 0.10 71 1009.3
20260507221036 14 211 1.6 12.9 0.00 0.10 0.10 73 1009.3
20260507220537 13 205 1.6 12.9 0.00 0.10 0.10 72 1009.1
20260507220049 13 231 3.2 12.9 0.00 0.10 0.10 72 1008.9
20260507215538 13 167 1.6 11.3 0.00 0.10 0.10 73 1008.9
20260507215037 13 52 3.2 16.1 0.00 0.10 0.10 72 1009.0
20260507214553 13 82 4.8 16.1 0.00 0.10 0.10 72 1009.0
20260507214037 13 0 4.8 12.9 0.00 0.10 0.10 73 1009.0
20260507213538 13 61 4.8 12.9 0.00 0.10 0.10 72 1009.0